Flag for Germany Weather past 2 weeks in Schwerin, Mecklenburg-Western Pomerania, Germany

Now
58 °F

Fog.


Feels Like: 59 °F
Forecast: 55 / 65 °F
Wind: 3 mph from Southwest

Location: Schwerin

Current Time: Aug 31, 2014 at 7:06:07 AM

Latest Report: Aug 31, 2014 at 6:00 AM


Visibility: 4 mi

Pressure: 29.87 "Hg

Humidity: 95%

Dew point: 57 °F

Location of SchwerinLocation

Historic Weather in Schwerin — Graph

°F

Schwerin temperature yesterday

Maximum temperature yesterday: 65 °F (at 12:00 PM)
Minimum temperature yesterday: 54 °F (at 6:00 AM)
Average temperature yesterday: 59 °F

Past Weeks' High & Low Weather Summary

 TemperatureHumidityPressure
High73 °F (Aug 28, 6:00 PM)100% (Aug 26, 6:00 AM)30.06 "Hg (Aug 26, 6:00 AM)
Low44 °F (Aug 26, 7:00 AM)34% (Aug 28, 6:00 PM)29.50 "Hg (Aug 18, 12:00 PM)
Average57 °F77%29.87 "Hg
* Reported Aug 16 6:00 AM — Aug 31 6:00 AM, Schwerin, Weather by CustomWeather, © 2014

Note: Actual official high and low records may vary slightly from our data, if they occured in-between our weather recording intervals... More about our weather records

Advertising

Schwerin weather history for previous 24 hours

 ConditionsComfort  
Time TempWeatherWind HumidityBarometerVisibility
6:00 AM
Aug 31
58 °FFog.3 mph95%29.87 "Hg4 mi
5:00 AM59 °FFog.3 mph96%29.88 "Hg4 mi
4:00 AM59 °FFog.1 mph97%29.89 "Hg3 mi
3:00 AM59 °FFog.2 mph98%29.91 "Hg2 mi
2:00 AM59 °FLow clouds.2 mph97%29.92 "Hg2 mi
1:00 AM60 °FFog.2 mph97%29.93 "Hg3 mi
12:00 AM60 °FFog.2 mph96%29.94 "Hg3 mi
10:00 PM
Aug 30
60 °FFog.3 mph96%29.94 "Hg3 mi
9:00 PM60 °FFog.3 mph95%29.94 "Hg4 mi
8:00 PM61 °FOvercast.5 mph94%29.94 "Hg5 mi
7:00 PM62 °FLight rain. Fog.3 mph93%29.94 "Hg2 mi
6:00 PM64 °FOvercast.3 mph82%29.94 "Hg10 mi
4:00 PM63 °FOvercast.3 mph85%29.96 "Hg7 mi
3:00 PM62 °FLight rain. Overcast.5 mph88%29.97 "Hg6 mi
2:00 PM64 °FOvercast.5 mph78%29.96 "Hg14 mi
1:00 PM64 °FOvercast.6 mph74%29.96 "Hg15 mi
12:00 PM65 °FOvercast.5 mph71%29.96 "Hg15 mi
10:00 AM60 °FLight rain. Overcast.2 mph86%29.97 "Hg6 mi
9:00 AM58 °FOvercast.3 mph90%29.97 "Hg5 mi
8:00 AM55 °FOvercast.3 mph93%29.97 "Hg5 mi
7:00 AM54 °FOvercast.2 mph94%29.96 "Hg5 mi
Weather by CustomWeather, © 2014

See weather overviewHow to use our weather pages